Time,TemperatureF,DewpointF,PressureIn,WindDirection,WindDirectionDegrees,WindSpeedMPH,WindSpeedGustMPH,Humidity,HourlyPrecipIn,Conditions,Clouds,dailyrainin,SolarRadiationWatts/m^2,SoftwareType,DateUTC
2013-04-21 00:00:00,51.3,30.1,30.42,SSE,167,0.0,0.0,44,0.00,,SCT,0.00,0.00,VWS V14.01,2013-04-21 04:00:00,
2013-04-21 00:01:00,51.3,30.1,30.42,SSE,167,0.0,0.0,44,0.00,,SCT,0.00,0.00,VWS V14.01,2013-04-21 04:01:00,
2013-04-21 00:06:00,51.2,31.1,30.42,SSE,167,1.0,1.0,46,0.00,,SCT,0.00,0.00,VWS V14.01,2013-04-21 04:06:00,
2013-04-21 00:11:00,51.4,30.2,30.43,SSE,167,0.0,1.0,44,0.00,,SCT,0.00,0.00,VWS V14.01,2013-04-21 04:11:00,
2013-04-21 00:16:00,51.0,29.9,30.43,SSE,167,2.0,2.0,44,0.00,,SCT,0.00,0.00,VWS V14.01,2013-04-21 04:16:00,
2013-04-21 00:21:00,51.5,29.8,30.43,SSE,167,0.0,2.0,43,0.00,,SCT,0.00,0.00,VWS V14.01,2013-04-21 04:21:00,
2013-04-21 00:26:00,51.3,31.8,30.43,SSE,167,1.0,2.0,47,0.00,,SCT,0.00,0.00,VWS V14.01,2013-04-21 04:26:00,
2013-04-21 00:31:00,50.8,32.3,30.44,South,169,4.0,5.0,49,0.00,,SCT,0.00,0.00,VWS V14.01,2013-04-21 04:31:00,
2013-04-21 00:36:00,50.4,33.9,30.44,SSE,150,7.0,7.0,53,0.00,,SCT,0.00,0.00,VWS V14.01,2013-04-21 04:36:00,
2013-04-21 00:41:00,49.6,34.6,30.45,SSE,156,0.0,7.0,56,0.00,,SCT,0.00,0.00,VWS V14.01,2013-04-21 04:41:00,
2013-04-21 00:46:00,48.9,34.3,30.45,South,181,2.0,7.0,57,0.00,,SCT,0.00,0.00,VWS V14.01,2013-04-21 04:46:00,
2013-04-21 00:51:00,48.1,34.5,30.45,SSW,196,1.0,7.0,59,0.00,,SCT,0.00,0.00,VWS V14.01,2013-04-21 04:51:00,
2013-04-21 00:56:00,48.0,33.9,30.45,SSW,196,0.0,4.0,58,0.00,,SCT,0.00,0.00,VWS V14.01,2013-04-21 04:56:00,
2013-04-21 01:00:00,48.0,34.4,30.45,SSW,196,1.0,7.0,59,0.00,,SCT,0.00,0.00,VWS V14.01,2013-04-21 05:00:00,
2013-04-21 01:01:00,48.2,33.7,30.45,SSW,196,0.0,4.0,57,0.00,,SCT,0.00,0.00,VWS V14.01,2013-04-21 05:01:00,
2013-04-21 01:06:00,48.5,33.5,30.46,SSW,196,1.0,4.0,56,0.00,,SCT,0.00,0.00,VWS V14.01,2013-04-21 05:06:00,
2013-04-21 01:11:00,48.6,33.2,30.46,SSW,206,4.0,5.0,55,0.00,,SCT,0.00,0.00,VWS V14.01,2013-04-21 05:11:00,
2013-04-21 01:16:00,48.6,32.3,30.46,SSW,213,4.0,6.0,53,0.00,,SCT,0.00,0.00,VWS V14.01,2013-04-21 05:16:00,
2013-04-21 01:21:00,48.7,32.3,30.46,SSW,211,4.0,6.0,53,0.00,,SCT,0.00,0.00,VWS V14.01,2013-04-21 05:21:00,
2013-04-21 01:26:00,48.6,32.3,30.46,South,181,1.0,6.0,53,0.00,,SCT,0.00,0.00,VWS V14.01,2013-04-21 05:26:00,
2013-04-21 01:31:00,48.5,31.7,30.46,South,181,3.0,6.0,52,0.00,,SCT,0.00,0.00,VWS V14.01,2013-04-21 05:31:00,
2013-04-21 01:36:00,48.4,32.1,30.46,South,182,1.0,6.0,53,0.00,,SCT,0.00,0.00,VWS V14.01,2013-04-21 05:36:00,
2013-04-21 01:41:00,48.1,32.7,30.47,South,183,0.0,6.0,55,0.00,,SCT,0.00,0.00,VWS V14.01,2013-04-21 05:41:00,
2013-04-21 01:46:00,47.8,32.0,30.47,South,183,0.0,6.0,54,0.00,,SCT,0.00,0.00,VWS V14.01,2013-04-21 05:46:00,
2013-04-21 01:51:00,48.0,31.7,30.47,SSW,198,0.0,6.0,53,0.00,,SCT,0.00,0.00,VWS V14.01,2013-04-21 05:51:00,
2013-04-21 01:56:00,48.1,31.8,30.47,South,188,1.0,3.0,53,0.00,,SCT,0.00,0.00,VWS V14.01,2013-04-21 05:56:00,
2013-04-21 02:00:00,48.0,31.7,30.47,South,188,1.0,6.0,53,0.00,,SCT,0.00,0.00,VWS V14.01,2013-04-21 06:00:00,
2013-04-21 02:01:00,48.1,31.8,30.48,South,188,2.0,5.0,53,0.00,,SCT,0.00,0.00,VWS V14.01,2013-04-21 06:01:00,
2013-04-21 02:06:00,48.1,31.3,30.48,South,185,6.0,6.0,52,0.00,,SCT,0.00,0.00,VWS V14.01,2013-04-21 06:06:00,
2013-04-21 02:11:00,48.0,31.2,30.48,SSE,163,5.0,6.0,52,0.00,,SCT,0.00,0.00,VWS V14.01,2013-04-21 06:11:00,
2013-04-21 02:16:00,47.9,31.1,30.48,South,178,4.0,7.0,52,0.00,,SCT,0.00,0.00,VWS V14.01,2013-04-21 06:16:00,
2013-04-21 02:21:00,47.8,31.5,30.48,South,186,1.0,7.0,53,0.00,,SCT,0.00,0.00,VWS V14.01,2013-04-21 06:21:00,
2013-04-21 02:26:00,47.1,32.2,30.48,SW,231,0.0,7.0,56,0.00,,SCT,0.00,0.00,VWS V14.01,2013-04-21 06:26:00,
2013-04-21 02:31:00,46.7,32.3,30.48,SW,231,3.0,7.0,57,0.00,,SCT,0.00,0.00,VWS V14.01,2013-04-21 06:31:00,
2013-04-21 02:36:00,46.7,31.4,30.48,SW,223,4.0,7.0,55,0.00,,SCT,0.00,0.00,VWS V14.01,2013-04-21 06:36:00,
2013-04-21 02:41:00,46.8,32.0,30.49,SW,223,0.0,7.0,56,0.00,,SCT,0.00,0.00,VWS V14.01,2013-04-21 06:41:00,
2013-04-21 02:46:00,46.7,31.4,30.49,SSW,210,0.0,7.0,55,0.00,,SCT,0.00,0.00,VWS V14.01,2013-04-21 06:46:00,
2013-04-21 02:51:00,46.6,31.8,30.49,SSW,196,4.0,7.0,56,0.00,,SCT,0.00,0.00,VWS V14.01,2013-04-21 06:51:00,
2013-04-21 02:56:00,46.7,31.4,30.49,South,170,5.0,7.0,55,0.00,,SCT,0.00,0.00,VWS V14.01,2013-04-21 06:56:00,
2013-04-21 03:00:00,46.6,31.3,30.49,South,175,4.0,7.0,55,0.00,,SCT,0.00,0.00,VWS V14.01,2013-04-21 07:00:00,
2013-04-21 03:01:00,46.7,31.4,30.49,South,178,4.0,7.0,55,0.00,,SCT,0.00,0.00,VWS V14.01,2013-04-21 07:01:00,
2013-04-21 03:06:00,46.6,31.3,30.50,South,173,2.0,8.0,55,0.00,,SCT,0.00,0.00,VWS V14.01,2013-04-21 07:06:00,
2013-04-21 03:11:00,46.4,31.6,30.50,South,186,2.0,8.0,56,0.00,,SCT,0.00,0.00,VWS V14.01,2013-04-21 07:11:00,
2013-04-21 03:16:00,46.0,31.6,30.50,SSW,204,1.0,8.0,57,0.00,,SCT,0.00,0.00,VWS V14.01,2013-04-21 07:16:00,
2013-04-21 03:21:00,45.8,31.5,30.51,SSW,195,2.0,8.0,57,0.00,,SCT,0.00,0.00,VWS V14.01,2013-04-21 07:21:00,
2013-04-21 03:26:00,45.8,31.5,30.51,South,182,1.0,8.0,57,0.00,,SCT,0.00,0.00,VWS V14.01,2013-04-21 07:26:00,
2013-04-21 03:31:00,45.9,31.1,30.51,South,174,4.0,8.0,56,0.00,,SCT,0.00,0.00,VWS V14.01,2013-04-21 07:31:00,
2013-04-21 03:36:00,45.8,31.5,30.51,South,183,2.0,8.0,57,0.00,,SCT,0.00,0.00,VWS V14.01,2013-04-21 07:36:00,
2013-04-21 03:41:00,45.5,31.6,30.51,South,185,4.0,8.0,58,0.00,,SCT,0.00,0.00,VWS V14.01,2013-04-21 07:41:00,
2013-04-21 03:46:00,45.5,31.2,30.52,South,189,0.0,8.0,57,0.00,,SCT,0.00,0.00,VWS V14.01,2013-04-21 07:46:00,
2013-04-21 03:51:00,45.4,31.1,30.52,SSW,195,2.0,8.0,57,0.00,,SCT,0.00,0.00,VWS V14.01,2013-04-21 07:51:00,
2013-04-21 03:56:00,45.1,31.6,30.52,SSW,193,3.0,5.0,59,0.00,,SCT,0.00,0.00,VWS V14.01,2013-04-21 07:56:00,
2013-04-21 04:00:00,45.3,31.4,30.52,SSW,195,5.0,8.0,58,0.00,,SCT,0.00,0.00,VWS V14.01,2013-04-21 08:00:00,
2013-04-21 04:01:00,44.6,32.0,30.52,SSW,194,1.0,5.0,61,0.00,,SCT,0.00,0.00,VWS V14.01,2013-04-21 08:01:00,
2013-04-21 04:06:00,44.5,31.9,30.53,SSW,194,3.0,5.0,61,0.00,,SCT,0.00,0.00,VWS V14.01,2013-04-21 08:06:00,
2013-04-21 04:11:00,44.7,31.3,30.53,South,184,4.0,5.0,59,0.00,,SCT,0.00,0.00,VWS V14.01,2013-04-21 08:11:00,
2013-04-21 04:16:00,45.0,31.1,30.53,South,171,1.0,6.0,58,0.00,,SCT,0.00,0.00,VWS V14.01,2013-04-21 08:16:00,
2013-04-21 04:21:00,45.1,31.2,30.54,South,171,2.0,6.0,58,0.00,,SCT,0.00,0.00,VWS V14.01,2013-04-21 08:21:00,
2013-04-21 04:26:00,44.9,31.0,30.54,SSE,161,5.0,6.0,58,0.00,,SCT,0.00,0.00,VWS V14.01,2013-04-21 08:26:00,
2013-04-21 04:31:00,44.8,30.9,30.54,SSE,161,4.0,6.0,58,0.00,,SCT,0.00,0.00,VWS V14.01,2013-04-21 08:31:00,
2013-04-21 04:36:00,44.4,31.4,30.54,South,175,1.0,6.0,60,0.00,,SCT,0.00,0.00,VWS V14.01,2013-04-21 08:36:00,
2013-04-21 04:41:00,44.0,31.8,30.55,South,175,0.0,6.0,62,0.00,,SCT,0.00,0.00,VWS V14.01,2013-04-21 08:41:00,
2013-04-21 04:46:00,43.6,30.6,30.55,South,175,4.0,6.0,60,0.00,,SCT,0.00,0.00,VWS V14.01,2013-04-21 08:46:00,
2013-04-21 04:51:00,43.9,30.9,30.55,South,175,0.0,6.0,60,0.00,,SCT,0.00,0.00,VWS V14.01,2013-04-21 08:51:00,
2013-04-21 04:56:00,43.9,30.9,30.55,South,175,0.0,1.0,60,0.00,,SCT,0.00,0.00,VWS V14.01,2013-04-21 08:56:00,
2013-04-21 05:00:00,44.0,31.0,30.55,South,175,0.0,6.0,60,0.00,,SCT,0.00,0.00,VWS V14.01,2013-04-21 09:00:00,
2013-04-21 05:01:00,43.8,30.8,30.56,South,175,0.0,4.0,60,0.00,,SCT,0.00,0.00,VWS V14.01,2013-04-21 09:01:00,
2013-04-21 05:06:00,43.6,31.0,30.56,South,171,1.0,4.0,61,0.00,,SCT,0.00,0.00,VWS V14.01,2013-04-21 09:06:00,
2013-04-21 05:11:00,43.6,30.6,30.56,South,170,0.0,4.0,60,0.00,,SCT,0.00,0.00,VWS V14.01,2013-04-21 09:11:00,
2013-04-21 05:15:00,43.3,31.2,30.56,South,171,0.0,4.0,62,0.00,,SCT,0.00,0.00,VWS V14.01,2013-04-21 09:15:00,
2013-04-21 05:20:00,43.0,31.3,30.57,South,171,0.0,4.0,63,0.00,,SCT,0.00,0.00,VWS V14.01,2013-04-21 09:20:00,
2013-04-21 05:25:00,42.8,31.5,30.57,South,171,0.0,4.0,64,0.00,,SCT,0.00,0.00,VWS V14.01,2013-04-21 09:25:00,
2013-04-21 05:30:00,42.7,31.4,30.57,South,170,0.0,4.0,64,0.00,,SCT,0.00,0.00,VWS V14.01,2013-04-21 09:30:00,
2013-04-21 05:35:00,42.6,31.7,30.57,South,171,0.0,4.0,65,0.00,,SCT,0.00,0.00,VWS V14.01,2013-04-21 09:35:00,
2013-04-21 05:40:00,42.5,31.6,30.58,South,171,0.0,4.0,65,0.00,,SCT,0.00,0.00,VWS V14.01,2013-04-21 09:40:00,
2013-04-21 05:45:00,42.4,31.5,30.58,South,171,0.0,4.0,65,0.00,,SCT,0.00,0.00,VWS V14.01,2013-04-21 09:45:00,
2013-04-21 05:50:00,42.3,31.4,30.59,South,171,0.0,4.0,65,0.00,,SCT,0.00,0.00,VWS V14.01,2013-04-21 09:50:00,
2013-04-21 05:55:00,42.3,31.4,30.59,South,171,0.0,0.0,65,0.00,,SCT,0.00,0.00,VWS V14.01,2013-04-21 09:55:00,
2013-04-21 06:00:00,42.3,31.4,30.59,South,171,0.0,1.0,65,0.00,,SCT,0.00,0.00,VWS V14.01,2013-04-21 10:00:00,
2013-04-21 06:05:00,42.3,31.8,30.59,South,171,0.0,1.0,66,0.00,,SCT,0.00,0.00,VWS V14.01,2013-04-21 10:05:00,
2013-04-21 06:10:00,42.2,31.7,30.59,South,171,0.0,1.0,66,0.00,,SCT,0.00,0.00,VWS V14.01,2013-04-21 10:10:00,
2013-04-21 06:15:00,42.2,31.3,30.59,South,171,1.0,4.0,65,0.00,,SCT,0.00,0.00,VWS V14.01,2013-04-21 10:15:00,
2013-04-21 06:20:00,42.0,31.5,30.60,South,171,0.0,4.0,66,0.00,,SCT,0.00,0.00,VWS V14.01,2013-04-21 10:20:00,
2013-04-21 06:25:00,41.9,31.4,30.60,South,171,0.0,4.0,66,0.00,,SCT,0.00,0.00,VWS V14.01,2013-04-21 10:25:00,
2013-04-21 06:30:00,41.9,31.4,30.61,South,171,0.0,4.0,66,0.00,,SCT,0.00,0.00,VWS V14.01,2013-04-21 10:30:00,
2013-04-21 06:35:00,42.0,31.1,30.61,South,178,0.0,4.0,65,0.00,,SCT,0.00,7.00,VWS V14.01,2013-04-21 10:35:00,
2013-04-21 06:40:00,41.9,31.0,30.61,South,178,0.0,4.0,65,0.00,,SCT,0.00,12.00,VWS V14.01,2013-04-21 10:40:00,
2013-04-21 06:45:00,41.8,31.3,30.62,South,178,0.0,4.0,66,0.00,,SCT,0.00,21.00,VWS V14.01,2013-04-21 10:45:00,
2013-04-21 06:50:00,41.9,31.4,30.62,South,178,2.0,4.0,66,0.00,,SCT,0.00,28.00,VWS V14.01,2013-04-21 10:50:00,
2013-04-21 06:55:00,42.2,31.3,30.62,SSE,153,7.0,7.0,65,0.00,,SCT,0.00,32.00,VWS V14.01,2013-04-21 10:55:00,
2013-04-21 07:00:00,42.4,31.9,30.63,South,178,0.0,7.0,66,0.00,,SCT,0.00,37.00,VWS V14.01,2013-04-21 11:00:00,
2013-04-21 07:05:00,42.1,32.0,30.63,South,189,1.0,7.0,67,0.00,,SCT,0.00,44.00,VWS V14.01,2013-04-21 11:05:00,
2013-04-21 07:10:00,41.9,32.1,30.64,South,190,0.0,7.0,68,0.00,,SCT,0.00,44.00,VWS V14.01,2013-04-21 11:10:00,
2013-04-21 07:15:00,42.2,32.4,30.64,SSW,194,4.0,7.0,68,0.00,,SCT,0.00,42.00,VWS V14.01,2013-04-21 11:15:00,
2013-04-21 07:20:00,42.7,32.2,30.64,SSW,213,5.0,11.0,66,0.00,,SCT,0.00,42.00,VWS V14.01,2013-04-21 11:20:00,
2013-04-21 07:25:00,42.9,32.0,30.64,SSW,209,5.0,11.0,65,0.00,,SCT,0.00,46.00,VWS V14.01,2013-04-21 11:25:00,
2013-04-21 07:30:00,43.2,31.5,30.65,South,180,7.0,13.0,63,0.00,,SCT,0.00,51.00,VWS V14.01,2013-04-21 11:30:00,
2013-04-21 07:35:00,43.5,31.4,30.64,South,190,9.0,15.0,62,0.00,,SCT,0.00,54.00,VWS V14.01,2013-04-21 11:35:00,
2013-04-21 07:40:00,43.7,31.5,30.65,South,182,7.0,16.0,62,0.00,,SCT,0.00,54.00,VWS V14.01,2013-04-21 11:40:00,
2013-04-21 07:45:00,43.8,31.2,30.65,SSW,200,11.0,16.0,61,0.00,,SCT,0.00,62.00,VWS V14.01,2013-04-21 11:45:00,
2013-04-21 07:50:00,43.9,30.9,30.65,South,182,5.0,16.0,60,0.00,,SCT,0.00,74.00,VWS V14.01,2013-04-21 11:50:00,
2013-04-21 07:55:00,44.0,31.0,30.66,South,181,6.0,11.0,60,0.00,,SCT,0.00,105.00,VWS V14.01,2013-04-21 11:55:00,
2013-04-21 08:00:00,44.2,30.4,30.66,South,184,8.0,19.0,58,0.00,,SCT,0.00,142.00,VWS V14.01,2013-04-21 12:00:00,
2013-04-21 08:05:00,44.4,31.0,30.66,SSW,205,9.0,19.0,59,0.00,,SCT,0.00,206.00,VWS V14.01,2013-04-21 12:05:00,
2013-04-21 08:10:00,44.6,30.8,30.66,SSW,192,5.0,19.0,58,0.00,,SCT,0.00,213.00,VWS V14.01,2013-04-21 12:10:00,
2013-04-21 08:15:00,44.8,30.1,30.66,SSW,196,9.0,19.0,56,0.00,,SCT,0.00,246.00,VWS V14.01,2013-04-21 12:15:00,
2013-04-21 08:20:00,45.0,30.7,30.67,SW,231,9.0,19.0,57,0.00,,SCT,0.00,315.00,VWS V14.01,2013-04-21 12:20:00,
2013-04-21 08:25:00,45.1,29.9,30.67,SW,221,10.0,20.0,55,0.00,,SCT,0.00,306.00,VWS V14.01,2013-04-21 12:25:00,
2013-04-21 08:30:00,45.2,29.6,30.67,SSW,197,11.0,21.0,54,0.00,,SCT,0.00,341.00,VWS V14.01,2013-04-21 12:30:00,
2013-04-21 08:35:00,45.3,29.6,30.67,SW,226,7.0,22.0,54,0.00,,SCT,0.00,288.00,VWS V14.01,2013-04-21 12:35:00,
2013-04-21 08:40:00,45.4,29.7,30.67,SSW,196,15.0,22.0,54,0.00,,SCT,0.00,236.00,VWS V14.01,2013-04-21 12:40:00,
2013-04-21 08:45:00,45.5,29.4,30.67,SSE,166,7.0,22.0,53,0.00,,SCT,0.00,304.00,VWS V14.01,2013-04-21 12:45:00,
2013-04-21 08:50:00,45.7,29.1,30.67,South,171,13.0,22.0,52,0.00,,SCT,0.00,380.00,VWS V14.01,2013-04-21 12:50:00,
2013-04-21 08:55:00,45.9,28.8,30.68,South,169,14.0,15.0,51,0.00,,SCT,0.00,397.00,VWS V14.01,2013-04-21 12:55:00,
2013-04-21 09:00:00,46.0,28.9,30.68,South,172,9.0,17.0,51,0.00,,SCT,0.00,436.00,VWS V14.01,2013-04-21 13:00:00,
2013-04-21 09:05:00,46.2,29.6,30.68,SSW,211,10.0,19.0,52,0.00,,SCT,0.00,295.00,VWS V14.01,2013-04-21 13:05:00,
2013-04-21 09:10:00,46.1,29.5,30.68,West,261,11.0,20.0,52,0.00,,SCT,0.00,403.00,VWS V14.01,2013-04-21 13:10:00,
2013-04-21 09:15:00,46.3,28.7,30.68,SSW,213,9.0,20.0,50,0.00,,SCT,0.00,396.00,VWS V14.01,2013-04-21 13:15:00,
2013-04-21 09:20:00,46.5,28.9,30.68,SW,221,13.0,20.0,50,0.00,,SCT,0.00,506.00,VWS V14.01,2013-04-21 13:20:00,
2013-04-21 09:25:00,46.7,29.5,30.68,SSW,198,7.0,20.0,51,0.00,,SCT,0.00,471.00,VWS V14.01,2013-04-21 13:25:00,
2013-04-21 09:30:00,47.0,29.8,30.69,SW,227,5.0,20.0,51,0.00,,SCT,0.00,455.00,VWS V14.01,2013-04-21 13:30:00,
2013-04-21 09:35:00,47.1,28.9,30.69,South,181,9.0,20.0,49,0.00,,SCT,0.00,455.00,VWS V14.01,2013-04-21 13:35:00,
2013-04-21 09:40:00,46.9,29.2,30.69,SSW,198,7.0,20.0,50,0.00,,SCT,0.00,515.00,VWS V14.01,2013-04-21 13:40:00,
2013-04-21 09:45:00,47.0,29.3,30.69,SSW,197,14.0,20.0,50,0.00,,SCT,0.00,524.00,VWS V14.01,2013-04-21 13:45:00,
2013-04-21 09:50:00,47.4,30.7,30.69,SSW,199,8.0,20.0,52,0.00,,SCT,0.00,545.00,VWS V14.01,2013-04-21 13:50:00,
2013-04-21 09:55:00,47.5,28.8,30.69,WSW,240,12.0,14.0,48,0.00,,SCT,0.00,577.00,VWS V14.01,2013-04-21 13:55:00,
2013-04-21 10:00:00,47.7,30.0,30.69,SW,216,11.0,15.0,50,0.00,,SCT,0.00,633.00,VWS V14.01,2013-04-21 14:00:00,
2013-04-21 10:05:00,47.5,29.3,30.69,SSE,165,5.0,16.0,49,0.00,,SCT,0.00,643.00,VWS V14.01,2013-04-21 14:05:00,
2013-04-21 10:10:00,47.8,29.1,30.69,SSW,200,13.0,16.0,48,0.00,,SCT,0.00,621.00,VWS V14.01,2013-04-21 14:10:00,
2013-04-21 10:15:00,48.0,29.3,30.69,SW,224,8.0,16.0,48,0.00,,SCT,0.00,661.00,VWS V14.01,2013-04-21 14:15:00,
2013-04-21 10:20:00,48.7,30.9,30.69,SSW,200,11.0,17.0,50,0.00,,SCT,0.00,589.00,VWS V14.01,2013-04-21 14:20:00,
2013-04-21 10:25:00,48.4,29.1,30.68,WSW,244,5.0,17.0,47,0.00,,SCT,0.00,664.00,VWS V14.01,2013-04-21 14:25:00,
2013-04-21 10:30:00,49.0,31.2,30.68,WSW,241,15.0,17.0,50,0.00,,SCT,0.00,682.00,VWS V14.01,2013-04-21 14:30:00,
2013-04-21 10:35:00,49.0,29.7,30.68,SW,214,9.0,17.0,47,0.00,,SCT,0.00,659.00,VWS V14.01,2013-04-21 14:35:00,
2013-04-21 10:40:00,48.8,29.0,30.68,SW,219,10.0,17.0,46,0.00,,SCT,0.00,686.00,VWS V14.01,2013-04-21 14:40:00,
2013-04-21 10:45:00,48.8,29.5,30.69,SSW,198,12.0,17.0,47,0.00,,SCT,0.00,654.00,VWS V14.01,2013-04-21 14:45:00,
2013-04-21 10:50:00,48.6,29.8,30.68,WSW,237,9.0,17.0,48,0.00,,SCT,0.00,731.00,VWS V14.01,2013-04-21 14:50:00,
2013-04-21 10:55:00,48.9,29.6,30.69,WSW,257,6.0,12.0,47,0.00,,SCT,0.00,752.00,VWS V14.01,2013-04-21 14:55:00,
2013-04-21 11:00:00,49.0,29.1,30.69,SW,225,10.0,13.0,46,0.00,,SCT,0.00,742.00,VWS V14.01,2013-04-21 15:00:00,
2013-04-21 11:05:00,49.0,30.2,30.69,WSW,254,9.0,13.0,48,0.00,,SCT,0.00,742.00,VWS V14.01,2013-04-21 15:05:00,
2013-04-21 11:10:00,49.7,31.3,30.69,WSW,254,6.0,16.0,49,0.00,,SCT,0.00,740.00,VWS V14.01,2013-04-21 15:10:00,
2013-04-21 11:15:00,49.4,29.0,30.69,WSW,238,10.0,16.0,45,0.00,,SCT,0.00,780.00,VWS V14.01,2013-04-21 15:15:00,
2013-04-21 11:20:00,49.3,30.5,30.69,WSW,250,6.0,16.0,48,0.00,,SCT,0.00,786.00,VWS V14.01,2013-04-21 15:20:00,
2013-04-21 11:25:00,49.6,29.7,30.69,SW,220,10.0,16.0,46,0.00,,SCT,0.00,798.00,VWS V14.01,2013-04-21 15:25:00,
2013-04-21 11:30:00,49.8,31.4,30.69,WSW,239,9.0,16.0,49,0.00,,SCT,0.00,809.00,VWS V14.01,2013-04-21 15:30:00,
2013-04-21 11:35:00,49.5,29.1,30.69,WSW,252,5.0,16.0,45,0.00,,SCT,0.00,823.00,VWS V14.01,2013-04-21 15:35:00,
2013-04-21 11:40:00,50.3,30.9,30.69,SSW,209,10.0,16.0,47,0.00,,SCT,0.00,814.00,VWS V14.01,2013-04-21 15:40:00,
2013-04-21 11:45:00,49.7,30.3,30.68,SW,234,4.0,16.0,47,0.00,,SCT,0.00,828.00,VWS V14.01,2013-04-21 15:45:00,
2013-04-21 11:50:00,50.3,29.8,30.68,South,174,2.0,16.0,45,0.00,,SCT,0.00,840.00,VWS V14.01,2013-04-21 15:50:00,
2013-04-21 11:55:00,50.7,30.1,30.68,SSW,209,6.0,14.0,45,0.00,,SCT,0.00,816.00,VWS V14.01,2013-04-21 15:55:00,
2013-04-21 12:00:00,50.8,29.7,30.68,South,188,6.0,14.0,44,0.00,,SCT,0.00,911.00,VWS V14.01,2013-04-21 16:00:00,
2013-04-21 12:05:00,51.3,31.8,30.67,South,186,3.0,14.0,47,0.00,,SCT,0.00,824.00,VWS V14.01,2013-04-21 16:05:00,
2013-04-21 12:10:00,51.4,31.3,30.67,SSE,161,10.0,14.0,46,0.00,,SCT,0.00,914.00,VWS V14.01,2013-04-21 16:10:00,
2013-04-21 12:15:00,51.6,32.6,30.67,SSW,205,7.0,14.0,48,0.00,,SCT,0.00,860.00,VWS V14.01,2013-04-21 16:15:00,
2013-04-21 12:20:00,51.8,30.0,30.67,East,98,4.0,14.0,43,0.00,,SCT,0.00,851.00,VWS V14.01,2013-04-21 16:20:00,
2013-04-21 12:25:00,51.8,32.8,30.67,South,171,10.0,14.0,48,0.00,,SCT,0.00,884.00,VWS V14.01,2013-04-21 16:25:00,
2013-04-21 12:30:00,51.8,30.6,30.67,SSW,200,0.0,14.0,44,0.00,,SCT,0.00,875.00,VWS V14.01,2013-04-21 16:30:00,
2013-04-21 12:35:00,52.6,31.3,30.67,South,176,1.0,14.0,44,0.00,,SCT,0.00,907.00,VWS V14.01,2013-04-21 16:35:00,
2013-04-21 12:40:00,52.6,31.3,30.67,South,176,1.0,14.0,44,0.00,,SCT,0.00,907.00,VWS V14.01,2013-04-21 16:40:00,
2013-04-21 12:45:00,52.6,32.4,30.66,SSW,204,4.0,14.0,46,0.00,,SCT,0.00,638.00,VWS V14.01,2013-04-21 16:45:00,
2013-04-21 12:50:00,52.2,31.5,30.66,South,174,13.0,14.0,45,0.00,,SCT,0.00,606.00,VWS V14.01,2013-04-21 16:50:00,
2013-04-21 12:55:00,52.3,31.0,30.66,SSW,204,7.0,9.0,44,0.00,,SCT,0.00,605.00,VWS V14.01,2013-04-21 16:55:00,
2013-04-21 13:00:00,52.0,30.2,30.66,SSE,163,5.0,9.0,43,0.00,,SCT,0.00,582.00,VWS V14.01,2013-04-21 17:00:00,
2013-04-21 13:05:00,52.5,30.1,30.66,SSW,192,1.0,9.0,42,0.00,,SCT,0.00,578.00,VWS V14.01,2013-04-21 17:05:00,
2013-04-21 13:10:00,53.6,32.2,30.66,SSE,155,0.0,9.0,44,0.00,,SCT,0.00,619.00,VWS V14.01,2013-04-21 17:10:00,
2013-04-21 13:15:00,53.4,30.3,30.66,SW,222,6.0,9.0,41,0.00,,SCT,0.00,401.00,VWS V14.01,2013-04-21 17:15:00,
2013-04-21 13:20:00,53.3,30.8,30.65,SW,223,5.0,9.0,42,0.00,,SCT,0.00,401.00,VWS V14.01,2013-04-21 17:20:00,
2013-04-21 13:25:00,52.5,31.2,30.65,SW,217,2.0,9.0,44,0.00,,SCT,0.00,401.00,VWS V14.01,2013-04-21 17:25:00,
2013-04-21 13:30:00,53.0,31.1,30.65,SSW,198,10.0,11.0,43,0.00,,SCT,0.00,715.00,VWS V14.01,2013-04-21 17:30:00,
2013-04-21 13:35:00,53.1,31.2,30.65,SSW,210,0.0,11.0,43,0.00,,SCT,0.00,543.00,VWS V14.01,2013-04-21 17:35:00,
2013-04-21 13:40:00,53.3,30.8,30.65,WSW,252,5.0,11.0,42,0.00,,SCT,0.00,737.00,VWS V14.01,2013-04-21 17:40:00,
2013-04-21 13:45:00,53.3,30.8,30.65,West,261,6.0,11.0,42,0.00,,SCT,0.00,737.00,VWS V14.01,2013-04-21 17:45:00,
2013-04-21 13:50:00,53.7,32.9,30.65,SSE,167,4.0,11.0,45,0.00,,SCT,0.00,613.00,VWS V14.01,2013-04-21 17:50:00,
2013-04-21 13:55:00,54.3,31.7,30.65,West,275,5.0,6.0,42,0.00,,SCT,0.00,485.00,VWS V14.01,2013-04-21 17:55:00,
2013-04-21 14:00:00,54.1,31.5,30.65,SW,220,6.0,8.0,42,0.00,,SCT,0.00,438.00,VWS V14.01,2013-04-21 18:00:00,
2013-04-21 14:05:00,53.5,30.4,30.64,SSW,198,2.0,10.0,41,0.00,,SCT,0.00,383.00,VWS V14.01,2013-04-21 18:05:00,
2013-04-21 14:10:00,53.7,31.2,30.64,SSW,193,3.0,10.0,42,0.00,,SCT,0.00,431.00,VWS V14.01,2013-04-21 18:10:00,
2013-04-21 14:15:00,53.7,30.6,30.64,SW,233,4.0,10.0,41,0.00,,SCT,0.00,575.00,VWS V14.01,2013-04-21 18:15:00,
2013-04-21 14:20:00,54.4,32.4,30.63,SSW,208,5.0,10.0,43,0.00,,SCT,0.00,566.00,VWS V14.01,2013-04-21 18:20:00,
2013-04-21 14:25:00,54.1,30.9,30.63,WSW,243,2.0,10.0,41,0.00,,SCT,0.00,517.00,VWS V14.01,2013-04-21 18:25:00,
2013-04-21 14:30:00,54.6,33.1,30.63,WSW,243,0.0,10.0,44,0.00,,SCT,0.00,415.00,VWS V14.01,2013-04-21 18:30:00,
2013-04-21 14:35:00,54.6,30.2,30.63,SSW,194,2.0,10.0,39,0.00,,SCT,0.00,457.00,VWS V14.01,2013-04-21 18:35:00,
2013-04-21 14:40:00,54.4,33.0,30.63,West,266,6.0,10.0,44,0.00,,SCT,0.00,499.00,VWS V14.01,2013-04-21 18:40:00,
2013-04-21 14:45:00,54.4,33.0,30.62,SSW,196,0.0,10.0,44,0.00,,SCT,0.00,543.00,VWS V14.01,2013-04-21 18:45:00,
2013-04-21 14:50:00,54.9,32.8,30.62,WSW,242,9.0,10.0,43,0.00,,SCT,0.00,603.00,VWS V14.01,2013-04-21 18:50:00,
2013-04-21 14:55:00,54.7,30.9,30.62,WSW,250,7.0,7.0,40,0.00,,SCT,0.00,591.00,VWS V14.01,2013-04-21 18:55:00,
2013-04-21 15:00:00,54.6,32.6,30.62,West,263,5.0,8.0,43,0.00,,SCT,0.00,469.00,VWS V14.01,2013-04-21 19:00:00,
2013-04-21 15:05:00,54.9,32.8,30.62,WSW,239,9.0,9.0,43,0.00,,SCT,0.00,378.00,VWS V14.01,2013-04-21 19:05:00,
2013-04-21 15:10:00,54.8,34.4,30.61,South,185,2.0,10.0,46,0.00,,SCT,0.00,343.00,VWS V14.01,2013-04-21 19:10:00,
2013-04-21 15:15:00,54.6,32.0,30.62,WSW,246,8.0,11.0,42,0.00,,SCT,0.00,355.00,VWS V14.01,2013-04-21 19:15:00,
2013-04-21 15:20:00,54.4,32.4,30.62,West,269,4.0,11.0,43,0.00,,SCT,0.00,373.00,VWS V14.01,2013-04-21 19:20:00,
2013-04-21 15:25:00,54.4,32.4,30.62,West,259,6.0,12.0,43,0.00,,SCT,0.00,826.00,VWS V14.01,2013-04-21 19:25:00,
2013-04-21 15:30:00,55.0,32.3,30.62,WNW,287,5.0,12.0,42,0.00,,SCT,0.00,694.00,VWS V14.01,2013-04-21 19:30:00,
2013-04-21 15:35:00,55.1,32.4,30.62,SW,219,4.0,12.0,42,0.00,,SCT,0.00,568.00,VWS V14.01,2013-04-21 19:35:00,
2013-04-21 15:40:00,55.3,33.2,30.62,WSW,248,8.0,12.0,43,0.00,,SCT,0.00,483.00,VWS V14.01,2013-04-21 19:40:00,
2013-04-21 15:45:00,55.0,33.5,30.61,WSW,245,5.0,12.0,44,0.00,,SCT,0.00,729.00,VWS V14.01,2013-04-21 19:45:00,
2013-04-21 15:50:00,55.3,33.2,30.61,NW,306,2.0,12.0,43,0.00,,SCT,0.00,584.00,VWS V14.01,2013-04-21 19:50:00,
2013-04-21 15:55:00,55.7,32.4,30.61,WSW,252,10.0,10.0,41,0.00,,SCT,0.00,714.00,VWS V14.01,2013-04-21 19:55:00,
2013-04-21 16:00:00,55.4,32.7,30.61,West,271,3.0,12.0,42,0.00,,SCT,0.00,708.00,VWS V14.01,2013-04-21 20:00:00,
2013-04-21 16:05:00,55.2,31.9,30.60,NNW,336,5.0,12.0,41,0.00,,SCT,0.00,420.00,VWS V14.01,2013-04-21 20:05:00,
2013-04-21 16:10:00,55.4,31.5,30.60,West,271,3.0,12.0,40,0.00,,SCT,0.00,724.00,VWS V14.01,2013-04-21 20:10:00,
2013-04-21 16:15:00,55.4,31.5,30.60,NW,311,3.0,12.0,40,0.00,,SCT,0.00,441.00,VWS V14.01,2013-04-21 20:15:00,
2013-04-21 16:20:00,55.9,32.6,30.60,NW,321,0.0,12.0,41,0.00,,SCT,0.00,663.00,VWS V14.01,2013-04-21 20:20:00,
2013-04-21 16:25:00,56.2,32.2,30.60,South,190,1.0,12.0,40,0.00,,SCT,0.00,608.00,VWS V14.01,2013-04-21 20:25:00,
2013-04-21 16:30:00,56.3,32.3,30.60,WSW,241,10.0,12.0,40,0.00,,SCT,0.00,613.00,VWS V14.01,2013-04-21 20:30:00,
2013-04-21 16:35:00,56.0,32.0,30.60,SW,233,5.0,12.0,40,0.00,,SCT,0.00,605.00,VWS V14.01,2013-04-21 20:35:00,
2013-04-21 16:40:00,56.1,32.7,30.60,WSW,257,5.0,12.0,41,0.00,,SCT,0.00,606.00,VWS V14.01,2013-04-21 20:40:00,
2013-04-21 16:45:00,56.1,31.5,30.60,NNW,327,2.0,12.0,39,0.00,,SCT,0.00,571.00,VWS V14.01,2013-04-21 20:45:00,
2013-04-21 16:50:00,57.0,32.3,30.60,WNW,283,4.0,12.0,39,0.00,,SCT,0.00,541.00,VWS V14.01,2013-04-21 20:50:00,
2013-04-21 16:55:00,56.6,33.2,30.60,WNW,287,3.0,6.0,41,0.00,,SCT,0.00,524.00,VWS V14.01,2013-04-21 20:55:00,
2013-04-21 17:00:00,56.5,33.7,30.60,SW,234,6.0,9.0,42,0.00,,SCT,0.00,510.00,VWS V14.01,2013-04-21 21:00:00,
2013-04-21 17:05:00,56.2,31.6,30.60,SSW,209,3.0,14.0,39,0.00,,SCT,0.00,476.00,VWS V14.01,2013-04-21 21:05:00,
2013-04-21 17:10:00,56.1,32.7,30.60,WSW,252,5.0,14.0,41,0.00,,SCT,0.00,445.00,VWS V14.01,2013-04-21 21:10:00,
2013-04-21 17:15:00,56.0,32.0,30.60,WSW,244,1.0,14.0,40,0.00,,SCT,0.00,383.00,VWS V14.01,2013-04-21 21:15:00,
2013-04-21 17:20:00,56.3,32.3,30.59,West,268,4.0,14.0,40,0.00,,SCT,0.00,207.00,VWS V14.01,2013-04-21 21:20:00,
2013-04-21 17:25:00,56.3,32.9,30.59,SSW,202,6.0,14.0,41,0.00,,SCT,0.00,139.00,VWS V14.01,2013-04-21 21:25:00,
2013-04-21 17:30:00,56.3,32.9,30.59,SSW,202,6.0,14.0,41,0.00,,SCT,0.00,139.00,VWS V14.01,2013-04-21 21:30:00,
2013-04-21 17:35:00,56.2,31.6,30.60,SW,216,5.0,14.0,39,0.00,,SCT,0.00,380.00,VWS V14.01,2013-04-21 21:35:00,
2013-04-21 17:40:00,56.3,32.3,30.60,West,263,4.0,14.0,40,0.00,,SCT,0.00,167.00,VWS V14.01,2013-04-21 21:40:00,
2013-04-21 17:45:00,56.1,31.5,30.60,West,265,1.0,14.0,39,0.00,,SCT,0.00,267.00,VWS V14.01,2013-04-21 21:45:00,
2013-04-21 17:50:00,56.4,32.4,30.60,SSE,160,4.0,14.0,40,0.00,,SCT,0.00,309.00,VWS V14.01,2013-04-21 21:50:00,
2013-04-21 17:55:00,56.7,33.3,30.60,SSW,209,5.0,6.0,41,0.00,,SCT,0.00,172.00,VWS V14.01,2013-04-21 21:55:00,
2013-04-21 18:00:00,56.2,32.8,30.60,South,181,9.0,10.0,41,0.00,,SCT,0.00,107.00,VWS V14.01,2013-04-21 22:00:00,
2013-04-21 18:05:00,56.0,32.7,30.60,SSW,197,4.0,10.0,41,0.00,,SCT,0.00,84.00,VWS V14.01,2013-04-21 22:05:00,
2013-04-21 18:10:00,55.9,33.2,30.60,South,189,2.0,10.0,42,0.00,,SCT,0.00,264.00,VWS V14.01,2013-04-21 22:10:00,
2013-04-21 18:15:00,55.8,32.5,30.60,SSW,205,6.0,10.0,41,0.00,,SCT,0.00,116.00,VWS V14.01,2013-04-21 22:15:00,
2013-04-21 18:20:00,55.5,32.8,30.60,SSE,157,8.0,10.0,42,0.00,,SCT,0.00,84.00,VWS V14.01,2013-04-21 22:20:00,
2013-04-21 18:25:00,55.4,32.7,30.60,SSW,206,6.0,10.0,42,0.00,,SCT,0.00,72.00,VWS V14.01,2013-04-21 22:25:00,
2013-04-21 18:30:00,55.1,32.4,30.60,SSW,195,7.0,12.0,42,0.00,,SCT,0.00,81.00,VWS V14.01,2013-04-21 22:30:00,
2013-04-21 18:35:00,54.9,31.7,30.60,SW,217,3.0,12.0,41,0.00,,SCT,0.00,53.00,VWS V14.01,2013-04-21 22:35:00,
2013-04-21 18:40:00,54.8,32.2,30.60,SSW,196,4.0,12.0,42,0.00,,SCT,0.00,53.00,VWS V14.01,2013-04-21 22:40:00,
2013-04-21 18:45:00,54.5,31.9,30.60,SSW,193,11.0,13.0,42,0.00,,SCT,0.00,65.00,VWS V14.01,2013-04-21 22:45:00,
2013-04-21 18:50:00,54.4,31.8,30.61,South,181,5.0,13.0,42,0.00,,SCT,0.00,65.00,VWS V14.01,2013-04-21 22:50:00,
2013-04-21 18:55:00,54.3,31.7,30.61,SSE,162,7.0,13.0,42,0.00,,SCT,0.00,49.00,VWS V14.01,2013-04-21 22:55:00,
2013-04-21 19:00:00,54.2,31.6,30.61,SSW,203,5.0,13.0,42,0.00,,SCT,0.00,44.00,VWS V14.01,2013-04-21 23:00:00,
2013-04-21 19:05:00,54.0,32.0,30.61,SSW,206,7.0,13.0,43,0.00,,SCT,0.00,44.00,VWS V14.01,2013-04-21 23:05:00,
2013-04-21 19:10:00,53.9,32.5,30.61,SSW,203,6.0,13.0,44,0.00,,SCT,0.00,33.00,VWS V14.01,2013-04-21 23:10:00,
2013-04-21 19:15:00,53.8,31.9,30.61,SSW,207,6.0,13.0,43,0.00,,SCT,0.00,26.00,VWS V14.01,2013-04-21 23:15:00,
2013-04-21 19:20:00,53.8,32.4,30.61,SSW,204,4.0,13.0,44,0.00,,SCT,0.00,23.00,VWS V14.01,2013-04-21 23:20:00,
2013-04-21 19:25:00,53.6,32.2,30.61,SW,218,4.0,13.0,44,0.00,,SCT,0.00,19.00,VWS V14.01,2013-04-21 23:25:00,
2013-04-21 19:30:00,53.5,32.7,30.61,SSW,198,4.0,13.0,45,0.00,,SCT,0.00,18.00,VWS V14.01,2013-04-21 23:30:00,
2013-04-21 19:35:00,53.3,32.5,30.61,SSW,209,8.0,13.0,45,0.00,,SCT,0.00,14.00,VWS V14.01,2013-04-21 23:35:00,
2013-04-21 19:40:00,53.2,32.4,30.61,SSW,202,4.0,13.0,45,0.00,,SCT,0.00,11.00,VWS V14.01,2013-04-21 23:40:00,
2013-04-21 19:45:00,52.9,32.7,30.61,SSW,202,4.0,13.0,46,0.00,,SCT,0.00,7.00,VWS V14.01,2013-04-21 23:45:00,
2013-04-21 19:50:00,52.7,33.0,30.61,SSW,204,3.0,13.0,47,0.00,,SCT,0.00,5.00,VWS V14.01,2013-04-21 23:50:00,
2013-04-21 19:55:00,52.5,32.3,30.61,SSW,196,9.0,10.0,46,0.00,,SCT,0.00,0.00,VWS V14.01,2013-04-21 23:55:00,
2013-04-21 20:00:00,52.4,32.2,30.62,SSW,193,5.0,10.0,46,0.00,,SCT,0.00,0.00,VWS V14.01,2013-04-22 00:00:00,
2013-04-21 20:05:00,52.3,32.7,30.62,SSW,201,2.0,10.0,47,0.00,,SCT,0.00,0.00,VWS V14.01,2013-04-22 00:05:00,
2013-04-21 20:10:00,52.0,32.9,30.62,SSW,204,1.0,10.0,48,0.00,,SCT,0.00,0.00,VWS V14.01,2013-04-22 00:10:00,
2013-04-21 20:15:00,51.8,33.3,30.62,SSW,205,1.0,10.0,49,0.00,,SCT,0.00,0.00,VWS V14.01,2013-04-22 00:15:00,
2013-04-21 20:20:00,51.5,33.0,30.62,SSW,205,4.0,10.0,49,0.00,,SCT,0.00,0.00,VWS V14.01,2013-04-22 00:20:00,
2013-04-21 20:25:00,51.4,32.9,30.62,SSW,197,3.0,10.0,49,0.00,,SCT,0.00,0.00,VWS V14.01,2013-04-22 00:25:00,
2013-04-21 20:30:00,51.4,32.9,30.62,SSW,197,2.0,10.0,49,0.00,,SCT,0.00,0.00,VWS V14.01,2013-04-22 00:30:00,
2013-04-21 20:35:00,51.1,33.1,30.62,SSW,211,3.0,10.0,50,0.00,,SCT,0.00,0.00,VWS V14.01,2013-04-22 00:35:00,
2013-04-21 20:40:00,50.9,33.4,30.62,SSW,211,2.0,10.0,51,0.00,,SCT,0.00,0.00,VWS V14.01,2013-04-22 00:40:00,
2013-04-21 20:45:00,50.7,33.2,30.63,SSW,211,2.0,10.0,51,0.00,,SCT,0.00,0.00,VWS V14.01,2013-04-22 00:45:00,
2013-04-21 20:50:00,50.5,33.1,30.63,SW,219,5.0,10.0,51,0.00,,SCT,0.00,0.00,VWS V14.01,2013-04-22 00:50:00,
2013-04-21 20:55:00,50.2,33.7,30.63,SW,220,0.0,1.0,53,0.00,,SCT,0.00,0.00,VWS V14.01,2013-04-22 00:55:00,
2013-04-21 21:00:00,50.0,33.1,30.63,SW,220,2.0,3.0,52,0.00,,SCT,0.00,0.00,VWS V14.01,2013-04-22 01:00:00,
2013-04-21 21:05:00,49.9,33.0,30.64,South,190,0.0,5.0,52,0.00,,SCT,0.00,0.00,VWS V14.01,2013-04-22 01:05:00,
2013-04-21 21:10:00,49.7,32.8,30.64,South,190,2.0,5.0,52,0.00,,SCT,0.00,0.00,VWS V14.01,2013-04-22 01:10:00,
2013-04-21 21:15:00,49.7,32.8,30.64,South,190,0.0,5.0,52,0.00,,SCT,0.00,0.00,VWS V14.01,2013-04-22 01:15:00,
2013-04-21 21:19:00,49.6,33.2,30.64,South,190,0.0,5.0,53,0.00,,SCT,0.00,0.00,VWS V14.01,2013-04-22 01:19:00,
2013-04-21 21:24:00,49.3,32.9,30.64,South,190,0.0,5.0,53,0.00,,SCT,0.00,0.00,VWS V14.01,2013-04-22 01:24:00,
2013-04-21 21:29:00,49.2,32.8,30.64,South,190,0.0,5.0,53,0.00,,SCT,0.00,0.00,VWS V14.01,2013-04-22 01:29:00,
2013-04-21 21:35:00,48.8,32.4,30.65,South,190,0.0,5.0,53,0.00,,SCT,0.00,0.00,VWS V14.01,2013-04-22 01:35:00,
2013-04-21 21:40:00,48.9,32.5,30.65,South,190,0.0,5.0,53,0.00,,SCT,0.00,0.00,VWS V14.01,2013-04-22 01:40:00,
2013-04-21 21:45:00,48.8,32.4,30.65,South,190,0.0,5.0,53,0.00,,SCT,0.00,0.00,VWS V14.01,2013-04-22 01:45:00,
2013-04-21 21:49:00,48.9,32.5,30.66,South,190,1.0,5.0,53,0.00,,SCT,0.00,0.00,VWS V14.01,2013-04-22 01:49:00,
2013-04-21 21:54:00,48.6,32.7,30.66,South,190,1.0,2.0,54,0.00,,SCT,0.00,0.00,VWS V14.01,2013-04-22 01:54:00,
2013-04-21 21:59:00,48.4,32.5,30.66,SSW,212,0.0,4.0,54,0.00,,SCT,0.00,0.00,VWS V14.01,2013-04-22 01:59:00,
2013-04-21 22:00:00,48.5,32.6,30.66,South,190,0.0,5.0,54,0.00,,SCT,0.00,0.00,VWS V14.01,2013-04-22 02:00:00,
2013-04-21 22:05:00,48.5,32.6,30.66,SSW,212,0.0,4.0,54,0.00,,SCT,0.00,0.00,VWS V14.01,2013-04-22 02:05:00,
2013-04-21 22:09:00,48.4,32.5,30.66,SSW,212,0.0,4.0,54,0.00,,SCT,0.00,0.00,VWS V14.01,2013-04-22 02:09:00,
2013-04-21 22:14:00,48.3,32.4,30.67,SSW,212,2.0,4.0,54,0.00,,SCT,0.00,0.00,VWS V14.01,2013-04-22 02:14:00,
2013-04-21 22:19:00,48.3,32.9,30.67,SSW,212,3.0,4.0,55,0.00,,SCT,0.00,0.00,VWS V14.01,2013-04-22 02:19:00,
2013-04-21 22:24:00,48.1,33.2,30.67,SSW,212,3.0,4.0,56,0.00,,SCT,0.00,0.00,VWS V14.01,2013-04-22 02:24:00,
2013-04-21 22:29:00,48.3,32.0,30.67,WSW,257,4.0,7.0,53,0.00,,SCT,0.00,0.00,VWS V14.01,2013-04-22 02:29:00,
2013-04-21 22:34:00,48.5,31.7,30.67,WSW,257,8.0,13.0,52,0.00,,SCT,0.00,0.00,VWS V14.01,2013-04-22 02:34:00,
2013-04-21 22:39:00,49.0,31.7,30.67,WSW,251,8.0,14.0,51,0.00,,SCT,0.00,0.00,VWS V14.01,2013-04-22 02:39:00,
2013-04-21 22:44:00,49.3,31.5,30.67,WSW,257,10.0,15.0,50,0.00,,SCT,0.00,0.00,VWS V14.01,2013-04-22 02:44:00,
2013-04-21 22:49:00,49.3,31.5,30.67,WSW,244,10.0,15.0,50,0.00,,SCT,0.00,0.00,VWS V14.01,2013-04-22 02:49:00,
2013-04-21 22:54:00,49.2,31.9,30.67,SW,235,10.0,11.0,51,0.00,,SCT,0.00,0.00,VWS V14.01,2013-04-22 02:54:00,
2013-04-21 22:59:00,48.9,31.6,30.67,WSW,244,9.0,12.0,51,0.00,,SCT,0.00,0.00,VWS V14.01,2013-04-22 02:59:00,
2013-04-21 23:00:00,49.2,31.4,30.67,WSW,242,10.0,15.0,50,0.00,,SCT,0.00,0.00,VWS V14.01,2013-04-22 03:00:00,
2013-04-21 23:04:00,48.7,31.9,30.67,West,271,9.0,12.0,52,0.00,,SCT,0.00,0.00,VWS V14.01,2013-04-22 03:04:00,
2013-04-21 23:09:00,48.5,31.7,30.67,WSW,252,13.0,14.0,52,0.00,,SCT,0.00,0.00,VWS V14.01,2013-04-22 03:09:00,
2013-04-21 23:14:00,48.5,32.2,30.67,West,273,9.0,14.0,53,0.00,,SCT,0.00,0.00,VWS V14.01,2013-04-22 03:14:00,
2013-04-21 23:19:00,48.3,32.0,30.67,WSW,256,7.0,14.0,53,0.00,,SCT,0.00,0.00,VWS V14.01,2013-04-22 03:19:00,
2013-04-21 23:24:00,48.0,31.7,30.67,West,275,8.0,14.0,53,0.00,,SCT,0.00,0.00,VWS V14.01,2013-04-22 03:24:00,
2013-04-21 23:29:00,47.9,31.6,30.67,WSW,255,6.0,15.0,53,0.00,,SCT,0.00,0.00,VWS V14.01,2013-04-22 03:29:00,
2013-04-21 23:34:00,47.9,32.1,30.67,West,267,8.0,15.0,54,0.00,,SCT,0.00,0.00,VWS V14.01,2013-04-22 03:34:00,
2013-04-21 23:39:00,47.9,32.1,30.67,West,279,5.0,15.0,54,0.00,,SCT,0.00,0.00,VWS V14.01,2013-04-22 03:39:00,
2013-04-21 23:44:00,47.8,31.5,30.67,WSW,255,6.0,15.0,53,0.00,,SCT,0.00,0.00,VWS V14.01,2013-04-22 03:44:00,
2013-04-21 23:49:00,47.6,31.8,30.67,WSW,251,5.0,15.0,54,0.00,,SCT,0.00,0.00,VWS V14.01,2013-04-22 03:49:00,
2013-04-21 23:54:00,47.6,31.8,30.67,WSW,251,4.0,7.0,54,0.00,,SCT,0.00,0.00,VWS V14.01,2013-04-22 03:54:00,
2013-04-21 23:59:00,47.6,31.8,30.68,West,273,4.0,9.0,54,0.00,,SCT,0.00,0.00,VWS V14.01,2013-04-22 03:59:00,